Regional Weather Roundup
Issued by NWS Newport/Morehead, NC

Current Version | Previous Version | Graphics & Text | Print | Product List | Glossary Off
Versions: 1 2 3 4 5 6 7 8 9 10 11 12 13 14 15 16 17 18 19 20 21 22 23 24 25 26 27 28 29 30 31 32 33 34 35 36 37 38 39 40 41 42 43 44 45 46 47 48 49 50

237
ASUS42 KMHX 281925
RWRMHX
WEATHER ROUNDUP FOR EASTERN NORTH CAROLINA
NATIONAL WEATHER SERVICE NEWPORT/MOREHEAD CITY NC
300 PM EDT THU APR 28 2016

NOTE: "FAIR" INDICATES FEW OR NO CLOUDS BELOW 12,000 FEET
WITH NO SIGNIFICANT WEATHER AND/OR OBSTRUCTIONS TO VISIBILITY

NCZ015>017-031-032-045>047-102-103-282000-
NORTH COAST

CITY           SKY/WX    TMP DP  RH WIND       PRES   REMARKS
EDENTON        MOSUNNY   72  66  81 E8        29.89F
ELIZABETH CITY CLOUDY   N/A N/A N/A MISG      29.91F
KITTY HAWK     CLOUDY    65  58  78 E6        29.90F
MANTEO         NOT AVBL

$$

NCZ045>047-081-094-103-104-282000-
CENTRAL COAST

CITY           SKY/WX    TMP DP  RH WIND       PRES   REMARKS
FRISCO         CLOUDY    75  68  78 SW12G18   29.92F
SWANQUARTER    NOT AVBL

$$

NCZ095-097-098-100-101-282000-
SOUTHERN COAST

CITY           SKY/WX    TMP DP  RH WIND       PRES   REMARKS
BEAUFORT       LGT RAIN  72  67  84 S14       29.91F
CEDAR ISLAND   NOT AVBL
JACKSONVILLE   CLOUDY    83  64  52 SW7G17    29.89F
PINEY ISLAND   NOT AVBL
WILMINGTON     CLOUDY    81  63  54 SW9       29.91F


$$

NCZ011>013-027>030-043-044-078>080-089-090>093-098-282000-
COASTAL PLAIN

CITY           SKY/WX    TMP DP  RH WIND       PRES   REMARKS
AHOSKIE        MOSUNNY   73  65  78 CALM      29.88F
CLINTON        SUNNY     85  65  49 SW8       29.87F
ELIZABETHTOWN  SUNNY     84  62  47 W8        29.88F
GOLDSBORO      SUNNY     86  66  51 SW15      29.85F
GREENVILLE     MOSUNNY   82  68  61 SW8       29.88F
HAVELOCK       PTSUNNY   82  69  64 S12G17    29.89F
KENANSVILLE    MOSUNNY   85  62  46 SW9       29.88F
KINSTON        MOSUNNY   84  64  51 SW13      29.88F
NEW BERN       PTSUNNY   85  66  53 SW10      29.88F
RICHLANDS      CLOUDY    84  65  52 S13       29.89F
ROCKY MOUNT    MOSUNNY   82  66  58 SW8       29.86F
WASHINGTON     MOSUNNY   82  68  62 SW5       29.86F
WHITEVILLE     SUNNY     84  64  52 SW9       29.90F

$$

AMZ130-135-150-152-154-156-158-170-250-252-270-ANZ085-086-088-633-658-670-282000-
MARINE OBSERVATIONS

STATION/POSITION TIME  TEMP    WIND        PRES    WAVE   SWELL
                       AIR SEA DIR/SP/G            HT/PER HT/PER
                 (UTC) (F)     (DEG/KT/KT) (MB)    (FT/S) (FT/S)
CHESAPEAKE LIGHT 1900   54      70/ 10/ 10 1013.9
64 E VA BEACH    1850   56 56   60/  2/  2 1013.3    3/ 6   3/ 6
DUCK             1900   59 67   60/  6/  7 1012.5
2 E DUCK         1811      58                N/A     3/ 4
OREGON INLET     1900   70 65  190/ 12/ 15 1012.1
13E OREGON INLT  1900      61                N/A     3/ 5   3/ 5
HATTERAS CG      1900   73 68  210/ 11/ 15 1012.7
DIAMOND BUOY     1850   74 72  220/ 17/ 19 1013.1    3/ 6   2/11
CAPE LOOKOUT     1900   73     210/ 14/ 18 1012.8
BEAUFORT LAB     1900   70 67  210/ 11/ 16 1012.1
30 SE NEW RVR IN 1825      67                N/A     4/ 6
27 SE WRIGHTSVLE 1908   71 69  230/ 12/ 17 1016.9
5 SE WRIGHTSVLE  1908   70 67  210/ 14/ 17 1013.6
225 S CAPE HAT   1850   72 72  170/ 10/ 10 1016.7    2/ 9   2/ 9
41 SE CHARLESTON 1850   72 72  210/  8/  8 1014.3    3/ 5   2/ 5

$$




USA.gov is the U.S. government's official web portal to all federal, state and local government web resources and services.